Find Starlink 3830

NORAD ID: 52363 Int'l Des: 2022-045 Owner: SPXS Country: US Constellation: starlink operational
LEOCIRCULAR

現在のビュー

3D地球を読み込み中...

About Starlink 3830

Starlink 3830 (NORAD 52363) is a starlink constellation satellite (v1.5) launched Apr 29, 2022 by SPXS of US. It operates in LEO, CIRCULAR orbit with a mass of 297.00 kg.

Starlink 3830について

説明を読み込み中...

次回通過

Passes for default location (London). Set your location on the main map for personalized predictions.

高度履歴

Loading altitude history...

軌道要素

1 52363U 22045AJ 26195.16668980 .00063394 00000-0 19742-2 0 9999
2 52363 53.1606 349.5778 0000355 122.9678 194.1083 15.32706569 5783
Epoch: Jul 14, 2026 • Age: 12 hours

現在のステータス

高度 470.5 km
遠地点 / 近地点 N/A
速度 7.64 km/s
衛星直下点 38.18°N, 36.66°W
打ち上げ日 Apr 29, 2022
運用期間 4.2 years
タイプ internet

技術仕様

分類 Payload
質量 297.00 kg
乾燥質量 275.00 kg
総質量 297.00 kg
長さ 0.20 m
直径 2.80 m
スパン 9.00 m
形状 Box + pan
製造者 SPXS
バスタイプ Starlink
フェーズステータス In Orbit
所有者/国 SPXS/US

Most Searched